GW3793 Weather Reports


Display with metric or nautical units.
time (UTC)temp
F
wind
direction
speed
MPH
gust
MPH
rain 1hr
in
rain 24hr
in
rain mn
in
humidity
%
barometer
mb
20260905024503 47 152 3.0 5.0 0.01 0.30 0.17 97 1017.1
20260905023603 48 143 2.0 6.0 0.02 0.30 0.17 97 1017.1
20260905022703 48 143 2.0 5.0 0.02 0.31 0.17 97 1017.1
20260905021803 49 139 2.0 4.0 0.02 0.31 0.17 97 1016.8
20260905020903 49 141 2.0 7.0 0.03 0.31 0.17 97 1016.9
20260905020003 49 152 1.0 3.0 0.04 0.31 0.17 98 1017.0
20260905015403 49 150 2.0 5.0 0.04 0.31 0.16 98 1016.7
20260905014504 49 161 2.0 4.0 0.04 0.31 0.16 97 1016.5
20260905013603 49 165 3.0 7.0 0.04 0.31 0.15 97 1016.6
20260905012703 50 164 2.0 5.0 0.05 0.30 0.15 98 1016.7
20260905012017 50 165 2.0 6.0 0.06 0.30 0.15 98 1016.6
20260905011118 50 166 3.0 6.0 0.06 0.29 0.14 97 1016.5
20260905010003 50 160 2.0 4.0 0.07 0.28 0.13 98 1016.4
20260905005403 50 156 1.0 2.0 0.07 0.28 0.12 97 1016.1
20260905004503 50 153 2.0 3.0 0.07 0.28 0.12 97 1015.9
20260905003603 50 163 1.0 3.0 0.06 0.27 0.11 97 1016.0
20260905002917 50 153 1.0 3.0 0.06 0.26 0.10 97 1015.9
20260905001803 50 166 0.0 2.0 0.04 0.24 0.08 97 1015.7
20260905000903 50 160 1.0 2.0 0.02 0.23 0.07 97 1015.9
20260905000003 50 154 1.0 2.0 0.01 0.22 0.06 97 1015.5
20260904235403 50 164 1.0 2.0 0.00 0.21 0.05 97 1015.5
20260904234503 50 175 0.0 1.0 0.00 0.21 0.05 97 1015.6
20260904233818 50 0 0.0 0.0 0.00 0.21 0.05 97 1015.2
20260904232703 50 186 0.0 2.0 0.00 0.22 0.05 97 1015.3
20260904231803 50 175 1.0 2.0 0.00 0.22 0.05 97 1015.1
20260904231118 50 172 1.0 2.0 0.00 0.22 0.05 97 1015.3
20260904230003 49 183 0.0 2.0 0.00 0.22 0.05 97 1015.6
20260904225616 49 183 0.0 2.0 0.00 0.23 0.05 97 1015.2
20260904224503 49 173 0.0 1.0 0.00 0.24 0.05 97 1015.5
20260904223603 49 168 0.0 1.0 0.00 0.24 0.05 97 1015.2
20260904222703 49 180 0.0 2.0 0.00 0.25 0.05 97 1015.2
20260904221803 49 221 0.0 2.0 0.00 0.25 0.05 97 1015.3
20260904220903 49 236 0.0 1.0 0.00 0.25 0.05 97 1015.1
20260904220003 49 29 0.0 2.0 0.00 0.26 0.05 97 1015.3
20260904215403 49 110 0.0 2.0 0.00 0.26 0.05 97 1015.2
20260904214503 49 177 0.0 2.0 0.00 0.26 0.05 97 1015.1
20260904213603 49 172 0.0 2.0 0.00 0.26 0.05 97 1015.0
20260904212705 49 109 0.0 2.0 0.00 0.27 0.05 97 1015.2
20260904211803 48 265 0.0 4.0 0.01 0.28 0.05 97 1014.8
20260904210903 48 52 0.0 4.0 0.00 0.28 0.04 97 1014.9
20260904210003 48 51 0.0 4.0 0.01 0.29 0.04 97 1014.7
20260904205403 48 172 0.0 1.0 0.01 0.30 0.04 97 1014.8
20260904204503 48 222 0.0 2.0 0.01 0.30 0.04 97 1014.6
20260904203603 48 249 0.0 2.0 0.01 0.31 0.04 97 1014.6
20260904202703 48 237 0.0 2.0 0.01 0.33 0.04 97 1014.7
20260904201803 48 243 0.0 2.0 0.01 0.33 0.04 97 1014.7
20260904200905 48 250 0.0 2.0 0.01 0.33 0.04 97 1014.8
20260904200003 48 293 0.0 2.0 0.00 0.34 0.04 97 1014.4
20260904195403 48 294 0.0 2.0 0.00 0.34 0.03 97 1014.7
20260904194717 48 0 0.0 0.0 0.00 0.35 0.03 97 1014.7
20260904193604 48 196 0.0 2.0 0.00 0.35 0.03 97 1014.7
20260904192703 48 144 0.0 1.0 0.00 0.36 0.03 97 1014.3
20260904191803 48 182 0.0 1.0 0.00 0.36 0.03 97 1014.6
20260904190903 48 127 0.0 2.0 0.00 0.37 0.03 97 1014.4
20260904190003 48 69 0.0 1.0 0.00 0.37 0.03 97 1014.4
20260904185403 48 270 0.0 1.0 0.00 0.38 0.03 97 1014.3
20260904184503 48 186 0.0 3.0 0.00 0.38 0.03 97 1014.4
20260904183603 48 156 0.0 1.0 0.00 0.39 0.03 97 1014.6
20260904182703 48 224 0.0 2.0 0.00 0.39 0.03 97 1014.2
20260904181803 48 251 0.0 2.0 0.00 0.40 0.03 97 1014.3
20260904180903 48 199 0.0 2.0 0.00 0.41 0.03 97 1014.2
20260904180217 48 205 0.0 2.0 0.00 0.41 0.03 97 1014.2
20260904175403 48 192 0.0 2.0 0.00 0.41 0.03 97 1014.1
20260904174503 48 151 0.0 3.0 0.00 0.41 0.03 97 1014.1
20260904173603 48 206 0.0 3.0 0.00 0.41 0.03 97 1014.0
20260904172703 48 89 0.0 3.0 0.00 0.41 0.03 97 1013.8
20260904171803 47 187 0.0 2.0 0.00 0.41 0.03 97 1013.9
20260904170903 47 128 0.0 3.0 0.00 0.41 0.03 97 1013.8
20260904170003 47 178 0.0 3.0 0.00 0.41 0.03 97 1013.7
20260904165403 47 164 0.0 3.0 0.00 0.41 0.03 97 1013.9
20260904164503 47 298 0.0 2.0 0.00 0.41 0.03 97 1013.8
20260904163603 47 260 0.0 2.0 0.00 0.41 0.03 97 1013.5
20260904162703 47 211 0.0 2.0 0.00 0.41 0.03 97 1013.7
20260904161803 47 356 0.0 4.0 0.00 0.41 0.03 97 1014.1
20260904161117 47 3 0.0 4.0 0.00 0.41 0.03 97 1014.1
20260904160003 47 40 0.0 2.0 0.00 0.41 0.03 97 1013.8
20260904155618 46 40 0.0 2.0 0.00 0.41 0.03 97 1014.0
20260904154503 46 6 0.0 1.0 0.00 0.41 0.03 97 1013.7
20260904153603 46 15 0.0 1.0 0.00 0.42 0.03 97 1013.9
20260904152703 46 0 0.0 0.0 0.00 0.42 0.03 97 1014.1
20260904152017 46 0 0.0 0.0 0.00 0.42 0.03 97 1013.8
20260904151116 46 147 1.0 2.0 0.00 0.42 0.03 97 1013.8
20260904150004 46 73 0.0 2.0 0.00 0.42 0.03 97 1013.8
20260904145618 46 49 0.0 1.0 0.00 0.42 0.03 97 1013.4
20260904144503 46 104 0.0 2.0 0.00 0.42 0.03 97 1013.3
20260904143605 46 14 0.0 3.0 0.00 0.42 0.03 97 1013.2
20260904142703 46 15 2.0 4.0 0.00 0.42 0.03 98 1013.3
20260904141804 46 30 2.0 5.0 0.00 0.42 0.03 97 1013.4
20260904140903 46 22 0.0 2.0 0.00 0.42 0.03 97 1013.0
20260904140003 45 121 0.0 1.0 0.00 0.42 0.03 97 1013.1
20260904135403 45 129 0.0 1.0 0.00 0.42 0.03 97 1012.8
20260904134503 45 18 0.0 2.0 0.00 0.42 0.03 97 1013.0
20260904133603 45 60 0.0 2.0 0.00 0.42 0.03 97 1012.8
20260904132703 45 34 0.0 2.0 0.00 0.42 0.03 97 1012.3
20260904131803 45 31 0.0 2.0 0.00 0.42 0.03 97 1012.5
20260904130903 45 35 0.0 1.0 0.00 0.42 0.03 97 1012.6
20260904130003 45 31 0.0 1.0 0.00 0.42 0.03 97 1012.4
20260904125404 45 40 0.0 2.0 0.00 0.42 0.03 97 1012.8
20260904124505 45 27 1.0 3.0 0.00 0.42 0.03 97 1012.5
20260904123603 45 31 1.0 3.0 0.00 0.42 0.03 97 1012.4
20260904122703 45 5 0.0 1.0 0.00 0.42 0.03 97 1012.5
20260904121803 45 28 0.0 2.0 0.00 0.42 0.03 97 1012.2
20260904120903 45 133 0.0 2.0 0.00 0.42 0.03 97 1012.4
20260904120217 45 148 0.0 1.0 0.00 0.42 0.03 97 1012.4
20260904115403 45 66 0.0 2.0 0.00 0.42 0.03 97 1012.3
20260904114503 45 60 0.0 2.0 0.00 0.42 0.03 97 1011.9
20260904113603 45 0 0.0 0.0 0.00 0.42 0.03 97 1011.6
20260904112703 45 0 0.0 0.0 0.00 0.42 0.03 97 1011.5
20260904111803 45 61 0.0 1.0 0.00 0.42 0.03 97 1011.6
20260904110903 45 19 0.0 2.0 0.00 0.42 0.03 97 1011.7
20260904110004 46 33 0.0 2.0 0.00 0.42 0.03 97 1011.5
20260904105403 46 42 0.0 2.0 0.00 0.42 0.03 97 1011.6
20260904104503 46 40 0.0 2.0 0.00 0.42 0.03 97 1011.6
20260904103603 46 67 0.0 3.0 0.00 0.42 0.03 97 1011.9
20260904102703 46 61 0.0 2.0 0.00 0.42 0.03 97 1011.2
20260904101803 46 35 1.0 3.0 0.01 0.42 0.03 97 1011.4
20260904101117 46 62 0.0 1.0 0.01 0.42 0.03 97 1011.7
20260904100003 46 54 0.0 1.0 0.01 0.42 0.03 97 1011.7
20260904095403 46 157 0.0 2.0 0.00 0.41 0.03 97 1012.0
20260904094503 46 145 1.0 4.0 0.00 0.41 0.03 97 1011.7
20260904093603 46 157 2.0 4.0 0.01 0.41 0.03 97 1011.6
20260904092705 46 157 2.0 4.0 0.01 0.41 0.03 97 1012.0
20260904091803 46 160 1.0 4.0 0.00 0.41 0.02 97 1011.9
20260904090903 46 131 1.0 3.0 0.01 0.41 0.02 97 1011.9
20260904090003 46 124 1.0 3.0 0.01 0.41 0.02 97 1011.7
20260904085403 46 120 1.0 3.0 0.01 0.41 0.02 97 1011.7
20260904084503 46 113 0.0 4.0 0.02 0.41 0.02 97 1011.7
20260904083818 46 111 1.0 4.0 0.02 0.41 0.02 97 1011.7
20260904082703 46 125 0.0 3.0 0.02 0.41 0.02 97 1011.7
20260904081803 46 121 0.0 3.0 0.02 0.41 0.02 97 1011.7
20260904080903 45 123 1.0 3.0 0.02 0.40 0.02 97 1011.9
20260904080003 45 108 0.0 4.0 0.01 0.40 0.01 96 1011.9
20260904075403 45 45 0.0 1.0 0.01 0.40 0.01 96 1011.6
20260904074503 45 50 0.0 1.0 0.01 0.39 0.01 96 1011.7
20260904073604 45 0 0.0 0.0 0.00 0.39 0.00 96 1011.9
20260904072703 45 25 0.0 2.0 0.00 0.39 0.00 96 1011.7
20260904071803 45 14 0.0 1.0 0.00 0.39 0.00 96 1011.7
20260904070903 45 0 0.0 0.0 0.01 0.39 0.00 96 1011.7
20260904070003 45 0 0.0 0.0 0.02 0.39 0.00 96 1011.7
20260904065405 45 36 0.0 2.0 0.02 0.39 0.39 96 1011.7
20260904064503 46 33 0.0 2.0 0.02 0.39 0.39 96 1011.6
20260904063603 46 0 0.0 0.0 0.03 0.39 0.39 96 1011.9
20260904062703 46 0 0.0 0.0 0.04 0.38 0.38 96 1011.7
20260904061803 46 0 0.0 0.0 0.04 0.38 0.38 96 1011.9
20260904060903 46 0 0.0 0.0 0.05 0.38 0.38 96 1011.6
20260904060004 46 0 0.0 0.0 0.05 0.37 0.37 96 1011.9
20260904055403 46 0 0.0 0.0 0.05 0.37 0.37 96 1011.6
20260904054503 46 0 0.0 0.0 0.05 0.36 0.36 96 1011.9
20260904053603 46 0 0.0 0.0 0.04 0.36 0.36 96 1011.6
20260904052703 46 0 0.0 0.0 0.04 0.35 0.35 96 1011.7
20260904051803 46 0 0.0 0.0 0.04 0.34 0.34 96 1011.7
20260904050903 46 360 0.0 1.0 0.04 0.33 0.33 96 1011.5
20260904050003 46 0 0.0 0.0 0.03 0.32 0.32 95 1011.6
20260904045403 46 96 0.0 1.0 0.03 0.32 0.32 95 1011.3
20260904044503 46 143 0.0 2.0 0.03 0.31 0.31 95 1011.7
20260904043816 46 150 0.0 2.0 0.03 0.31 0.31 95 1011.6
20260904042703 46 181 0.0 1.0 0.03 0.31 0.31 95 1011.6
20260904041803 46 60 0.0 1.0 0.03 0.30 0.30 95 1011.7
20260904040903 46 60 0.0 1.0 0.03 0.30 0.30 95 1011.7
20260904040003 46 178 0.0 2.0 0.03 0.29 0.29 95 1011.7
20260904035403 46 168 0.0 2.0 0.03 0.29 0.29 95 1011.5
20260904034503 46 165 0.0 2.0 0.03 0.28 0.28 95 1011.7
20260904033818 46 126 0.0 2.0 0.03 0.28 0.28 95 1012.0
20260904032917 46 138 0.0 2.0 0.03 0.28 0.28 95 1011.6
20260904031803 46 166 0.0 3.0 0.03 0.27 0.27 95 1011.6
20260904030903 46 150 0.0 2.0 0.03 0.27 0.27 95 1011.4
20260904030005 46 162 0.0 2.0 0.03 0.26 0.26 94 1011.3
20260904025403 47 161 0.0 2.0 0.02 0.26 0.26 94 1011.3